Location: Devore Heights
(34.2372°N, 117.4156°W)
Time: 18:11:39
(UTC+00:00)

deb Explorer IX - Pass Details

Date: 13 September 2024
Orbit: 502 x 816 km, 38.7° (Epoch: 15 October)

Event Time Altitude Azimuth Distance (km) Brightness Sun altitude
Rises 02:43:44 0° 214° (SSW) 3,378 ? -9.9°
Reaches altitude 10° 02:46:32 10° 203° (SSW) 2,466 ? -10.4°
Maximum altitude 02:51:35 30° 145° (SE) 1,497 ? -11.5°
Enters shadow 02:55:15 16° 95° (E) 2,061 ? -12.2°
Drops below altitude 10° 02:56:37 10° 86° (E) 2,455 - -12.5°
Sets 02:59:24 0° 76° (ENE) 3,362 - -13.0°
